Preview of NWS' New Version of Forecast
This preview is not operational and should not be used for support decisions.

Regional Weather Roundup (RWR)

Issued by National Weather Service (NWS)

                            
000
ASUS45 KBOU 170410
RWRCO 

WEATHER ROUNDUP FOR COLORADO
NATIONAL WEATHER SERVICE DENVER/BOULDER CO
900 PM MST SAT FEB 16 2019

NOTE: "FAIR" INDICATES FEW OR NO CLOUDS BELOW 12000 FEET WITH NO
SIGNIFICANT WEATHER AND/OR OBSTRUCTIONS TO VISIBILITY.

COZ001>005-013-030-031-170500-
...NORTHWEST COLORADO...
  
CITY           SKY/WX    TMP DP  RH WIND       PRES   REMARKS
CRAIG          MOCLDY    10   4  76 W5        29.80R WCI   2          
HAYDEN         FAIR      13   6  74 S6        29.79R WCI   4          
MEEKER         CLOUDY    17  11  77 CALM      29.79R                  
RANGELY        FAIR      16   9  74 CALM      29.82R                  
RABBIT EARS PA CLOUDY   N/A N/A N/A W10G21    29.62R                  
STEAMBOAT SPGS MOCLDY    12   5  74 E6        29.76R WCI   2          
WALDEN         CLOUDY     7   0  72 CALM      29.69R                  
$$

COZ006>008-011-170500-
...WEST CENTRAL VALLEYS...
  
CITY           SKY/WX    TMP DP  RH WIND       PRES   REMARKS
GRAND JUNCTION FAIR      31  20  63 E5        29.80R WCI  26          
MONTROSE       FAIR      24  15  68 S10       29.84R WCI  14          
EAGLE          FAIR      10   4  76 E12       29.81R WCI  -5          
RIFLE          MOCLDY    18   9  68 S5        29.82R WCI  11          
DELTA          FAIR      29  16  57 NE5       29.83R WCI  24          
NUCLA          FAIR      27  14  59 E12       29.83S WCI  16          
$$

COZ017>023-064>068-170500-
...SOUTHWEST COLORADO...
  
CITY           SKY/WX    TMP DP  RH WIND       PRES   REMARKS
DURANGO        FAIR      19  12  74 CALM      29.80R                  
CORTEZ         FAIR      27  18  69 CALM      29.82R                  
PAGOSA SPRINGS NOT AVBL                                               
TELLURIDE      FAIR      10   3  72 CALM      29.77R                  
WOLF CREEK PAS CLOUDY     0  -6  78 W3        29.72R                  
$$

COZ009-010-012-014-032>034-037-058>063-170500-
...CENTRAL COLORADO...
  
CITY           SKY/WX    TMP DP  RH WIND       PRES   REMARKS
ASPEN          CLOUDY    10   1  67 S6        29.74R WCI   0          
BUENA VISTA    FAIR      12  -4  50 NW6       29.72R WCI   2          
COPPER MTN     CLOUDY     1  -6  71 W10G17    29.58R WCI -14          
BERTHOUD PASS  CLOUDY    -6 -17  59 NW30G47   29.49R WCI -34          
COTTONWOOD PAS FAIR      12  -4  48 W23G30    29.64R WCI  -7          
GUNNISON       FAIR       4  -2  76 N6        29.78R WCI  -7          
GRANBY         CLOUDY    10   3  74 SE5       29.72R WCI   2          
KREMMLING      CLOUDY    12   5  73 SE3       29.75R                  
LEADVILLE      LGT SNOW   2  -2  83 N8        29.64R FOG     WCI -12  
MONARCH PASS     N/A     -2  -6  84 MISG      29.68S                  
SALIDA         FAIR      20   2  46 W12G20    29.80R WCI   8          
SUNLIGHT         N/A    N/A N/A N/A MISG      29.71R                  
WILKERSON PASS FAIR       1  -8  66 NW10G23   29.58S WCI -14          
$$

COZ069>075-170500-
...SAN LUIS VALLEY/SANGRE DE CRISTO MOUNTAINS...
  
CITY           SKY/WX    TMP DP  RH WIND       PRES   REMARKS
ALAMOSA        FAIR      17   4  56 N14       29.75R WCI   3          
DEL NORTE      FAIR      14   1  56 W13       29.75R WCI   0          
LA VETA PASS   NOT AVBL                                               
SAGUACHE       FAIR      18   5  57 CALM      29.76R                  
$$

COZ035-036-038>040-170500-
...NORTHERN COLORADO FRONT RANGE...
  
CITY           SKY/WX    TMP DP  RH WIND       PRES   REMARKS
DENVER INTL AP FAIR      22  15  75 W9        29.67R WCI  12          
AURORA         PTCLDY    22   6  50 W9        29.69R WCI  12          
FRONT RANGE AP PTCLDY    19  14  79 W12       29.68R WCI   7          
ERIE MUNI ARPT FAIR      27   5  39 W10       29.75R WCI  17          
BOULDER MUN AP FAIR      30   0  27 NW7G20    29.68R WCI  23          
CENTENNIAL     FAIR      24   3  40 W9        29.68R WCI  14          
BROOMFIELD     MOCLDY    25   3  39 W10       29.69R WCI  15          
FORT COLLINS   FAIR      29   3  33 NW10G24   29.68R WCI  20          
LONGMONT       FAIR      29   2  32 SE6       29.70R WCI  23          
$$

COZ041-046-047-076>085-087-088-170500-
...PIKES PEAK/PALMER DIVIDE AND SOUTHERN FOOTHILLS...
  
CITY           SKY/WX    TMP DP  RH WIND       PRES   REMARKS
COLO. SPRINGS  FAIR      23   8  52 NW13G21   29.68R WCI  11          
A. F. ACADEMY  FAIR      24  -5  28 NW14      29.65R WCI  11          
SCHRIEVER AFB  NOT AVBL                                               
CHEYENNE MTN   FAIR      24 -15  17 NW15G26   29.60S WCI  11          
ELLICOTT       NOT AVBL                                               
FALCON         FAIR      18   5  55 W14       29.66S WCI   4          
FORT CARSON    CLEAR     26   3  38 W9        29.68R WCI  16          
LIMON          FAIR      23  17  78 W13       29.67R WCI  11          
MONUMENT HILL  FAIR      14  12  92 W5        29.67R WCI   6          
CANON CITY     NOT AVBL                                               
WALSENBURG     NOT AVBL                                               
TRINIDAD       CLOUDY    28  21  75 E6        29.75R WCI  22          
$$

COZ042>045-048>051-090-091-170500-
...NORTHEAST COLORADO...
  
CITY           SKY/WX    TMP DP  RH WIND       PRES   REMARKS
GREELEY ARPT   FAIR      27   6  41 NW9       29.69R WCI  18          
AKRON          FAIR      27  21  78 NW14      29.65R WCI  16          
BURLINGTON     CLOUDY    26  23  88 W8        29.66R WCI  18          
WRAY           CLOUDY    30  23  74 N13       29.68R WCI  20          
YUMA           FAIR      28  21  74 NW10      29.65R WCI  19          
STERLING       MOCLDY    30  23  74 NW9       29.66R WCI  22          
HOLYOKE        FAIR      27  23  86 N8        29.67R WCI  18          
FORT MORGAN      N/A     30   6  37 NW16G22   29.69R WCI  19          
$$

COZ086-089-092>099-170500-
...SOUTHEAST COLORADO...
  
CITY           SKY/WX    TMP DP  RH WIND       PRES   REMARKS
PUEBLO         FAIR      22  20  92 CALM      29.73R                  
LA JUNTA       MOCLDY    30  22  72 SW8       29.73R WCI  22          
LAMAR          CLOUDY    30  27  88 SW13      29.71R WCI  20          
SPRINGFIELD      N/A     23  23 100 NW8       29.73R WCI  14          
$$